Regional Weather Roundup
Issued by NWS

Home | Current Version | Previous Version | Graphics & Text | Print | Product List | Glossary On
Versions: 1 2 3 4 5 6 7 8 9 10 11 12 13 14 15 16 17 18 19 20 21 22 23 24 25 26 27 28 29 30 31 32 33 34 35 36 37 38 39 40 41 42 43 44 45 46 47 48 49 50
000
ASUS43 KLMK 202202
RWRKY
KENTUCKY REGIONAL WEATHER ROUNDUP
NATIONAL WEATHER SERVICE LOUISVILLE KY
600 PM EDT THU JUL 20 2017

NOTE "FAIR" INDICATES FEW OR NO CLOUDS BELOW 12,000 FEET
WITH NO SIGNIFICANT WEATHER AND/OR OBSTRUCTIONS TO VISIBILITY.

KYZ001>023-026-027-061>063-070>075-202300-
WESTERN AND SOUTH CENTRAL KENTUCKY

CITY           SKY/WX    TMP DP  RH WIND       PRES   REMARKS
PADUCAH        CLOUDY    92  72  51 SW6       30.02F HX  99
HENDERSON      CLOUDY    92  75  57 SW8       30.01F HX 103
OWENSBORO      PTSUNNY   93  76  57 SW7       30.02F HX 105
HOPKINSVILLE   CLOUDY    91  72  54 SW7       30.04F HX  98
BOWLING GREEN  MOSUNNY   93  73  52 SW9       30.03F HX 102
GLASGOW        NOT AVBL
$$

KYZ024-025-028>034-038-045-046-053-202300-
NORTH CENTRAL KENTUCKY

CITY           SKY/WX    TMP DP  RH WIND       PRES   REMARKS
LOUISVILLE/SDF PTSUNNY   94  71  47 W14       30.00F HX 101
LOUISVILLE/LOU MOSUNNY   93  74  53 SW12G20   30.00F HX 103
FORT KNOX      PTSUNNY   91  72  53 SW8       30.01F HX  98
$$

KYZ035>037-039>044-047>052-055>060-089>105-202300-
NORTHEAST KENTUCKY

CITY           SKY/WX    TMP DP  RH WIND       PRES   REMARKS
LEXINGTON      MOSUNNY   90  71  53 SW9       30.04F HX  96
COVINGTON      PTSUNNY   89  76  65 SW8       30.02F HX 100
FRANKFORT      CLOUDY    91  73  55 VRB7      30.02S HX  99
$$

KYZ054-064>069-076>088-106>120-202300-
SOUTHEAST KENTUCKY

CITY           SKY/WX    TMP DP  RH WIND       PRES   REMARKS
JACKSON        SUNNY     88  70  55 CALM      30.07F HX  93
LONDON         PTSUNNY   87  69  54 W5        30.07F HX  91
SOMERSET       MOSUNNY   86  68  54 CALM      30.07F
MIDDLESBORO    CLOUDY    89  67  48 N3        30.07F HX  91
MONTICELLO     CLOUDY    89  75  63 W13       30.07F HX  99
$$





USA.gov is the U.S. government's official web portal to all federal, state and local government web resources and services.